Location: Lake Arresoe
(56.0000°N, 12.5000°E)
Time: 15:56:21
(UTC+02:00)

Resurs 1-4 Rocket - Pass Details

Date: 26 July 2021
Orbit: 799 x 814 km, 98.6° (Epoch: 27 September)

Event Time Altitude Azimuth Distance (km) Brightness Sun altitude
Rises 01:42:40 0° 22° (NNE) 3,352 6.9 -14.4°
Reaches altitude 10° 01:45:29 10° 36° (NE) 2,413 5.6 -14.3°
Maximum altitude 01:49:46 24° 90° (E) 1,622 3.8 -14.2°
Drops below altitude 10° 01:54:02 10° 144° (SE) 2,392 4.1 -14.2°
Enters shadow 01:54:06 10° 144° (SE) 2,411 4.2 -14.2°
